CST,Max TemperatureF,Mean TemperatureF,Min TemperatureF,Max Dew PointF,MeanDew PointF,Min DewpointF,Max Humidity, Mean Humidity, Min Humidity, Max Sea Level PressureIn, Mean Sea Level PressureIn, Min Sea Level PressureIn, Max VisibilityMiles, Mean VisibilityMiles, Min VisibilityMiles, Max Wind SpeedMPH, Mean Wind SpeedMPH, Max Gust SpeedMPH,PrecipitationIn, CloudCover, Events, WindDirDegrees
2013-1-1,39,31,22,25,23,19,92,73,54,30.28,30.20,30.05,10,9,6,14,8,20,0.00,4,,359
2013-1-2,44,33,22,26,23,20,96,68,40,30.33,30.26,30.18,10,10,7,17,7,22,0.00,3,,335
2013-1-3,39,31,22,25,20,14,88,63,37,30.45,30.40,30.32,10,10,10,14,6,16,0.00,5,,69
2013-1-4,33,31,29,28,27,25,92,84,75,30.43,30.34,30.24,10,9,3,20,9,24,T,8,Snow,223
2013-1-5,55,41,27,27,21,13,92,56,19,30.33,30.22,30.14,10,10,8,23,14,29,0.00,2,,290
2013-1-6,50,36,22,24,20,18,92,61,29,30.45,30.35,30.24,10,10,10,15,7,18,0.00,0,,185
2013-1-7,51,39,26,25,22,19,75,52,29,30.22,30.10,29.99,10,10,10,21,9,24,0.00,5,,155
2013-1-8,51,39,26,39,32,24,85,73,61,30.11,29.99,29.92,10,9,6,13,6,16,0.00,5,,196
2013-1-9,47,40,33,40,35,26,100,77,53,30.28,30.11,29.98,10,6,2,32,17,45,0.84,8,Rain,23
2013-1-10,52,46,39,43,40,37,100,89,66,30.01,29.91,29.80,10,7,1,18,14,24,0.04,7,Rain,311
2013-1-11,63,51,38,41,36,22,82,62,42,29.82,29.72,29.63,10,10,10,29,15,36,0.00,6,,231
2013-1-12,42,33,23,30,23,20,88,67,45,30.03,29.89,29.81,10,10,9,23,11,28,0.00,5,,21
2013-1-13,34,28,21,21,18,15,92,72,51,30.25,30.16,30.05,10,10,9,13,8,16,0.00,4,,36
2013-1-14,28,24,19,15,11,8,77,62,46,30.30,30.23,30.13,10,10,10,16,10,20,0.00,6,,78
2013-1-15,35,27,19,17,15,13,84,65,45,30.27,30.23,30.15,10,10,10,15,7,21,0.00,3,,357
2013-1-16,53,36,18,26,20,12,84,60,35,30.34,30.25,30.17,10,10,10,24,11,30,0.00,2,,309
2013-1-17,55,41,27,27,25,23,78,54,29,30.53,30.44,30.35,10,10,10,14,7,16,0.00,0,,64
2013-1-18,60,44,28,29,27,24,85,55,25,30.43,30.27,30.11,10,10,10,25,13,29,0.00,1,,203
2013-1-19,68,48,28,29,22,13,85,48,11,30.24,30.13,30.05,10,10,10,18,11,22,0.00,1,,318
2013-1-20,64,44,24,25,20,16,81,49,16,30.24,30.14,30.04,10,10,10,18,8,23,0.00,0,,295
2013-1-21,47,36,25,26,23,20,92,67,42,30.35,30.23,30.13,10,10,7,17,8,21,0.00,1,,70
2013-1-22,68,46,24,34,26,16,88,51,14,30.23,30.16,30.06,10,10,6,20,10,24,0.00,0,,222
2013-1-23,74,51,27,29,20,11,78,44,9,30.20,30.14,30.06,10,10,10,15,8,18,0.00,1,,258
2013-1-24,78,54,30,27,18,9,54,31,7,30.17,30.06,29.96,10,10,10,23,11,28,0.00,5,,258
2013-1-25,61,47,33,31,28,25,75,51,26,30.17,30.08,29.95,10,10,8,20,9,24,0.00,5,,37
2013-1-26,67,51,35,46,36,27,77,57,37,30.12,30.02,29.92,10,10,7,22,9,26,T,6,,154
2013-1-27,75,62,48,54,43,32,93,57,21,29.98,29.84,29.74,10,9,4,38,19,46,0.00,5,,220
2013-1-28,74,59,43,51,35,23,76,47,17,29.84,29.76,29.67,10,10,10,31,13,38,0.00,6,,219
2013-1-29,56,44,31,38,28,8,76,49,22,29.83,29.67,29.52,10,9,2,37,17,47,0.03,6,Rain-Snow,288
2013-1-30,48,36,24,23,11,0,75,44,13,30.13,30.04,29.84,10,10,10,31,14,37,0.00,1,,293
2013-1-31,63,45,27,23,15,10,63,38,13,30.24,30.12,30.04,10,10,10,24,11,26,0.00,2,,299